Sioux City, IA

11:30 PM CST on November 11, 2019 (GMT -0600)
Sioux Gateway

Weather History for KSUX - October, 2019

Change the Weather History Date:

Monday, October 21, 2019

  Actual Average Record
Temperature  
Mean Temperature 49 °F 49 °F  
Max Temperature 57 °F 61 °F 88 °F (1947)
Min Temperature 41 °F 36 °F 14 °F (1913)
Degree Days  
Heating Degree Days 16 16  
Month to date heating degree days 322 266  
Since 1 July heating degree days 358 413  
Cooling Degree Days 0 0  
Month to date cooling degree days 0 8  
Year to date cooling degree days 910 869  
Moisture  
Dew Point 44 °F    
Average Humidity 86    
Maximum Humidity 100    
Minimum Humidity 69    
Precipitation  
Precipitation 0.13 in 0.06 in 0.92 in (1906)
Month to date precipitation 2.31 1.62  
Year to date precipitation 30.42 25.12  
Snow  
Snow 0.00 in 0.00 in 0.10 in (1936)
Month to date snowfall T 0.4  
Since 1 July snowfall T 0.4  
Since 1 September snowfall T 0.4  
Snow Depth 0.00 in    
Sea Level Pressure  
Sea Level Pressure 29.41 in    
Wind  
Wind Speed 12 mph ()    
Max Wind Speed 38 mph    
Max Gust Speed 54 mph    
Visibility 9.6 miles    
Events Rain , Thunderstorm    
T = Trace of Precipitation, MM = Missing Value Source: Averaged Metar Reports

Daily Weather History Graph

Daily Weather History Graph

Search for Another Location

Airport or City:

Astronomy

Oct. 21, 2019 Rise Set
Actual Time 7:45 AM CDT 6:34 PM CDT
Civil Twilight 7:16 AM CDT 7:02 PM CDT
Nautical Twilight 6:43 AM CDT 7:35 PM CDT
Astronomical Twilight 6:11 AM CDT 8:08 PM CDT
Moon No Moon Rise 3:08 PM CDT (10/21)
Length of Visible Light 11h 46m
Length of Day
10h 49m
Waning Gibbous, 48% of the Moon is Illuminated
Oct 21
Waning Gibbous
Oct 27
New
Nov 4
First Quarter
Nov 12
Full
Nov 19
Last Quarter

Hourly Weather History & Observations

Time (CDT) Temp. Windchill Dew Point Humidity Pressure Visibility Wind Dir Wind Speed Gust Speed Precip Events Conditions
12:52 AM 48.0 °F - 44.1 °F 86% 29.47 in 10.0 mi ESE 10.4 mph - 0.00 in Rain Light Rain
1:42 AM 50.0 °F - 46.9 °F 89% 29.45 in 10.0 mi ESE 10.4 mph - 0.00 in Rain Light Rain
1:52 AM 50.0 °F - 46.9 °F 89% 29.45 in 10.0 mi ESE 10.4 mph - 0.00 in Rain Light Rain
2:28 AM 50.0 °F - 48.0 °F 93% 29.43 in 10.0 mi SE 8.1 mph - 0.00 in Rain Light Rain
2:52 AM 50.0 °F - 48.0 °F 93% 29.42 in 10.0 mi SE 5.8 mph - 0.00 in   Overcast
3:52 AM 50.0 °F - 48.0 °F 93% 29.39 in 10.0 mi ESE 4.6 mph - 0.00 in   Overcast
4:13 AM 50.0 °F - 48.0 °F 93% 29.39 in 10.0 mi SE 5.8 mph - N/A   Overcast
4:52 AM 48.9 °F - 48.0 °F 97% 29.39 in 10.0 mi South 5.8 mph - 0.00 in Rain Light Rain
4:59 AM 48.9 °F - 48.0 °F 97% 29.39 in 10.0 mi SSE 4.6 mph - 0.00 in   Overcast
5:01 AM 48.9 °F - 48.0 °F 97% 29.39 in 10.0 mi SSE 5.8 mph - 0.00 in   Overcast
5:19 AM 48.9 °F - 48.0 °F 97% 29.39 in 10.0 mi South 4.6 mph - 0.00 in   Overcast
5:50 AM 46.4 °F - 44.6 °F 93% 29.38 in 7.0 mi Calm Calm - 0.00 in   Scattered Clouds
5:52 AM 46.9 °F - 44.1 °F 90% 29.38 in 7.0 mi Calm Calm - 0.00 in   Scattered Clouds
6:13 AM 44.1 °F - 42.1 °F 93% 29.36 in 8.0 mi Calm Calm - N/A   Partly Cloudy
6:52 AM 43.0 °F 38.2 °F 42.1 °F 97% 29.34 in 7.0 mi West 8.1 mph - N/A   Partly Cloudy
7:52 AM 41.0 °F 34.3 °F 39.9 °F 96% 29.32 in 10.0 mi West 11.5 mph - N/A   Scattered Clouds
8:49 AM 42.8 °F 37.0 °F 37.4 °F 81% 29.33 in 10.0 mi WNW 10.4 mph - N/A   Mostly Cloudy
8:52 AM 42.1 °F 36.1 °F 39.0 °F 89% 29.34 in 10.0 mi WNW 10.4 mph - N/A   Mostly Cloudy
9:25 AM 43.0 °F 35.7 °F 39.0 °F 86% 29.33 in 10.0 mi WNW 15.0 mph 21.9 mph N/A   Scattered Clouds
9:52 AM 46.9 °F - 41.0 °F 80% 29.35 in 10.0 mi WNW 16.1 mph - N/A   Mostly Cloudy
10:02 AM 46.0 °F 41.4 °F 39.9 °F 79% 29.35 in 10.0 mi NW 9.2 mph 20.7 mph N/A   Overcast
10:38 AM 46.0 °F 40.6 °F 42.1 °F 86% 29.35 in 10.0 mi NW 11.5 mph - N/A   Overcast
10:52 AM 46.9 °F - 44.1 °F 90% 29.35 in 10.0 mi WNW 10.4 mph - N/A   Overcast
11:34 AM 52.0 °F - 46.0 °F 80% 29.33 in 10.0 mi WNW 11.5 mph - N/A   Overcast
11:52 AM 54.0 °F - 46.0 °F 75% 29.33 in 10.0 mi NW 12.7 mph - N/A   Mostly Cloudy
12:01 PM 55.0 °F - 46.0 °F 72% 29.33 in 10.0 mi NW 16.1 mph 25.3 mph N/A   Mostly Cloudy
12:49 PM 53.6 °F - 44.6 °F 72% 29.33 in 10.0 mi WNW 21.9 mph 33.4 mph 0.00 in Rain Light Rain
12:52 PM 54.0 °F - 45.0 °F 72% 29.34 in 10.0 mi NW 21.9 mph 33.4 mph 0.00 in Rain Light Rain
1:35 PM 54.0 °F - 44.1 °F 69% 29.33 in 10.0 mi WNW 32.2 mph 42.6 mph 0.00 in Rain Light Rain
1:43 PM 51.1 °F - 46.0 °F 83% 29.33 in 10.0 mi WNW 23.0 mph 42.6 mph 0.00 in Rain , Thunderstorm Light Rain
1:52 PM 52.0 °F - 46.0 °F 80% 29.34 in 10.0 mi WNW 18.4 mph 33.4 mph 0.00 in Rain , Thunderstorm Light Rain
2:13 PM 53.1 °F - 45.0 °F 74% 29.33 in 10.0 mi WNW 24.2 mph 36.8 mph 0.00 in   Mostly Cloudy
3:04 PM 48.9 °F - 45.0 °F 86% 29.35 in 9.0 mi WNW 24.2 mph 40.3 mph 0.00 in   Overcast
3:24 PM 48.9 °F - 45.0 °F 86% 29.36 in 10.0 mi WNW 23.0 mph 38.0 mph 0.00 in Rain Light Rain
3:42 PM 48.0 °F - 43.0 °F 83% 29.38 in 10.0 mi WNW 27.6 mph 40.3 mph 0.00 in Rain Light Rain
3:52 PM 46.9 °F - 44.1 °F 90% 29.40 in 7.0 mi WNW 25.3 mph 38.0 mph 0.00 in Rain Light Rain
4:52 PM 44.1 °F 36.5 °F 41.0 °F 89% 29.47 in 8.0 mi NW 17.3 mph 28.8 mph 0.05 in Rain Light Rain
5:52 PM 45.0 °F 36.2 °F 41.0 °F 86% 29.50 in 8.0 mi NW 24.2 mph 42.6 mph 0.05 in Rain Light Rain
6:34 PM 45.0 °F 36.2 °F 42.1 °F 90% 29.49 in 10.0 mi WNW 24.2 mph 36.8 mph 0.02 in Rain Light Rain
6:44 PM 46.0 °F 37.4 °F 42.1 °F 86% 29.49 in 10.0 mi WNW 25.3 mph 40.3 mph 0.02 in Rain Light Rain
6:52 PM 46.0 °F 36.9 °F 42.1 °F 86% 29.51 in 10.0 mi WNW 28.8 mph 49.5 mph 0.02 in Rain Light Rain
7:52 PM 46.0 °F 36.5 °F 41.0 °F 83% 29.55 in 10.0 mi WNW 31.1 mph 50.6 mph 0.00 in Rain Light Rain
8:52 PM 46.0 °F 36.9 °F 39.9 °F 79% 29.59 in 10.0 mi WNW 28.8 mph 46.0 mph 0.01 in   Mostly Cloudy
9:52 PM 45.0 °F 35.4 °F 39.9 °F 82% 29.62 in 10.0 mi WNW 28.8 mph 44.9 mph N/A   Overcast
10:52 PM 44.1 °F 34.6 °F 39.0 °F 82% 29.65 in 10.0 mi NW 26.5 mph 41.4 mph N/A   Overcast
11:52 PM 44.1 °F 35.2 °F 39.0 °F 82% 29.67 in 10.0 mi NW 23.0 mph 39.1 mph N/A   Overcast